Location: Northern Prairie Star Party
(53.2167°N, 112.5333°W)
Time: 05:31:42
(UTC-07:00)

Amateur Radio Satellites - All Passes

Search period start: 24 February 2017 05:01
Search period end: 25 February 2017 05:01
Location: Northern Prairie Star Party, 53.2167°N, 112.5333°W

Satellite Date Start Highest point End Downlink Frequencies (MHz)
Time Altitude Azimuth
STARS 24 Feb 05:19:25 05:23:18 31° 265° (W) 05:27:14 437.465
CUTE-I 24 Feb 05:27:51 05:30:40 14° 84° (E) 05:33:28 437.470
AO-85 24 Feb 05:30:50 05:35:08 51° 127° (SE) 05:39:10 145.980
KAITUO 1B 24 Feb 05:38:47 05:40:01 11° 86° (E) 05:41:15 145.475/437.950
XW-2F 24 Feb 05:40:29 05:42:33 14° 88° (E) 05:44:35 145.980 - 146.000
XW-2D 24 Feb 05:43:59 05:46:24 16° 89° (E) 05:48:47 145.860 - 145.880
XW-2B 24 Feb 05:48:51 05:51:27 17° 90° (E) 05:54:01 145.730 - 145.750
XW-2C 24 Feb 05:57:11 06:00:09 21° 92° (E) 06:03:04 145.795 - 145.815
ITAMSAT 1 24 Feb 06:09:39 06:12:50 16° 311° (NW) 06:16:00 435.822/435.867
LilacSat-2 24 Feb 06:12:13 06:15:40 29° 95° (E) 06:19:04 437.200
NUDT-PHONESAT 24 Feb 06:13:56 06:17:06 25° 93° (E) 06:20:15 437.300
STRAND 1 24 Feb 06:22:39 06:27:41 59° 68° (ENE) 06:32:47 437.568
AO-7 24 Feb 06:30:25 06:37:47 37° 312° (NW) 06:45:07 .
SO-50 24 Feb 06:33:30 06:38:03 73° 43° (NE) 06:42:32 436.795
DOVE 4 24 Feb 06:39:47 06:44:20 61° 101° (ESE) 06:49:09 437.250
HO-68 24 Feb 06:43:38 06:48:22 18° 85° (E) 06:53:03 435.675
CUTE-I 24 Feb 07:06:14 07:11:39 75° 104° (ESE) 07:17:03 437.470
KAITUO 1B 24 Feb 07:10:49 07:14:38 85° 288° (WNW) 07:18:25 145.475/437.950
AO-85 24 Feb 07:11:43 07:15:42 35° 327° (NNW) 07:19:29 145.980
SEEDS 24 Feb 07:11:49 07:13:47 13° 86° (E) 07:15:43 437.485
XW-2F 24 Feb 07:13:20 07:17:11 70° 287° (WNW) 07:20:57 145.980 - 146.000
XW-2D 24 Feb 07:17:11 07:21:00 61° 288° (WNW) 07:24:46 145.860 - 145.880
O/OREOS (USA 219) 24 Feb 07:22:05 07:26:02 28° 45° (NE) 07:29:59 437.305
XW-2B 24 Feb 07:22:13 07:26:01 56° 289° (WNW) 07:29:45 145.730 - 145.750
BEESAT 3 24 Feb 07:29:14 07:33:03 51° 127° (SE) 07:36:56 437.485
XW-2C 24 Feb 07:30:52 07:34:35 45° 291° (WNW) 07:38:14 145.795 - 145.815
CUTE 1.7 + AOD 2 24 Feb 07:46:12 07:50:11 37° 96° (E) 07:54:05 437.475
LilacSat-2 24 Feb 07:46:29 07:49:58 32° 294° (WNW) 07:53:24 437.200
XW-2A 24 Feb 07:47:37 07:51:03 53° 101° (E) 07:54:26 145.665 - 145.685
NUDT-PHONESAT 24 Feb 07:47:39 07:51:09 36° 292° (WNW) 07:54:37 437.300
CUBEBUG 2 24 Feb 07:50:54 07:54:48 24° 91° (E) 07:58:40 437.445
STRAND 1 24 Feb 08:03:00 08:07:15 26° 268° (W) 08:11:33 437.568
BEESAT 2 24 Feb 08:04:34 08:08:25 50° 126° (SE) 08:12:20 435.950
FO-29 24 Feb 08:05:18 08:10:53 23° 45° (NE) 08:16:40 435.910
UNISAT 6 24 Feb 08:05:42 08:08:49 18° 55° (NE) 08:11:58 437.425
TIGRISAT 24 Feb 08:06:31 08:09:32 18° 55° (NE) 08:12:36 435.000
AO-73 24 Feb 08:09:11 08:11:37 14° 85° (E) 08:13:59 145.935
SO-50 24 Feb 08:14:35 08:18:06 23° 243° (WSW) 08:21:35 436.795
Oscar 11 24 Feb 08:17:41 08:19:55 14° 86° (E) 08:22:08 .
PRISM 24 Feb 08:17:58 08:21:46 40° 67° (ENE) 08:25:36 437.425
DOVE 4 24 Feb 08:18:08 08:21:45 24° 299° (WNW) 08:25:31 437.250
AO-7 24 Feb 08:23:47 08:28:18 16° 338° (NNW) 08:32:50 .
HO-68 24 Feb 08:30:08 08:37:20 75° 106° (ESE) 08:44:30 435.675
UWE-3 24 Feb 08:30:51 08:35:10 35° 95° (E) 08:39:26 435.000/436.395/437.385
AAUSAT CUBESAT 2 24 Feb 08:39:01 08:43:00 44° 98° (E) 08:46:56 437.432
SEEDS 24 Feb 08:45:53 08:50:06 87° 288° (WNW) 08:54:16 437.485
KAITUO 1B 24 Feb 08:46:28 08:48:04 12° 305° (NW) 08:49:38 145.475/437.950
CUTE-I 24 Feb 08:47:00 08:51:14 24° 305° (NW) 08:55:28 437.470
XW-2F 24 Feb 08:49:44 08:50:36 11° 307° (NW) 08:51:29 145.980 - 146.000
Tancredo 1 24 Feb 08:53:52 08:55:38 14° 142° (SE) 08:57:23 437.200
AO-85 24 Feb 08:54:22 08:57:09 17° 351° (N) 08:59:51 145.980
ZACube-1 24 Feb 08:54:49 08:59:06 36° 95° (E) 09:03:18 437.345
O/OREOS (USA 219) 24 Feb 09:01:16 09:05:46 58° 246° (WSW) 09:10:16 437.305
BEESAT 3 24 Feb 09:07:13 09:10:51 33° 328° (NNW) 09:14:31 437.485
XW-2A 24 Feb 09:21:13 09:23:30 17° 299° (WNW) 09:25:46 145.665 - 145.685
CUTE 1.7 + AOD 2 24 Feb 09:22:13 09:25:57 30° 296° (WNW) 09:29:39 437.475
EO-79 24 Feb 09:22:26 09:23:49 11° 51° (NE) 09:25:13 145.935-145.965
CUBEBUG 2 24 Feb 09:27:03 09:31:43 56° 290° (WNW) 09:36:23 437.445
YUBILEINY 24 Feb 09:36:40 09:43:51 29° 78° (ENE) 09:51:00 435.215
POLYITAN 1 24 Feb 09:38:15 09:40:45 15° 55° (NE) 09:43:15 437.675
NANOSAT C BR1 24 Feb 09:39:06 09:41:26 15° 54° (NE) 09:43:45 145.865
UNISAT 6 24 Feb 09:40:24 09:44:57 83° 257° (WSW) 09:49:38 437.425
QB50P2 24 Feb 09:40:52 09:43:36 17° 56° (NE) 09:46:21 145.880/145.840
TIGRISAT 24 Feb 09:41:05 09:45:37 86° 251° (WSW) 09:50:18 435.000
BEESAT 2 24 Feb 09:42:41 09:46:22 34° 328° (NNW) 09:50:06 435.950
AO-73 24 Feb 09:43:55 09:48:32 89° 105° (ESE) 09:53:04 145.935
FO-29 24 Feb 09:47:22 09:54:38 69° 67° (ENE) 10:02:26 435.910
Oscar 11 24 Feb 09:52:19 09:56:42 86° 281° (W) 10:01:01 .
PRISM 24 Feb 09:53:45 09:57:12 26° 265° (W) 10:00:41 437.425
ISS 24 Feb 09:59:52 10:02:51 32° 155° (SSE) 10:05:51 437.550
UWE-3 24 Feb 10:07:19 10:11:39 38° 295° (WNW) 10:15:57 435.000/436.395/437.385
AIST 2D 24 Feb 10:13:06 10:16:20 33° 67° (ENE) 10:19:36 435.315
AO-7 24 Feb 10:14:52 10:17:47 12° 5° (N) 10:20:42 .
AAUSAT CUBESAT 2 24 Feb 10:14:53 10:18:17 25° 298° (WNW) 10:21:39 437.432
BUGSAT 1 24 Feb 10:14:55 10:16:23 12° 52° (NE) 10:17:51 437.445
HO-68 24 Feb 10:18:24 10:24:35 33° 308° (NW) 10:30:45 435.675
DELFI C3 24 Feb 10:22:30 10:26:27 71° 103° (ESE) 10:30:21 145.870
SEEDS 24 Feb 10:22:56 10:25:11 14° 305° (NW) 10:27:25 437.485
Tancredo 1 24 Feb 10:28:13 10:31:20 43° 161° (SSE) 10:34:26 437.200
ZACube-1 24 Feb 10:31:10 10:35:22 35° 295° (WNW) 10:39:30 437.345
AO-85 24 Feb 10:36:00 10:38:56 19° 16° (NNE) 10:41:48 145.980
DUCHIFAT 1 24 Feb 10:45:20 10:49:21 45° 68° (ENE) 10:53:25 145.980
BEESAT 3 24 Feb 10:46:54 10:49:31 17° 351° (N) 10:52:10 437.485
EO-79 24 Feb 10:54:35 10:58:46 63° 71° (ENE) 11:03:00 145.935-145.965
Gurwin Techsat 1B 24 Feb 11:04:17 11:06:03 12° 44° (NE) 11:07:48 435.225
CUBEBUG 2 24 Feb 11:05:37 11:07:23 12° 310° (NW) 11:09:10 437.445
POLYITAN 1 24 Feb 11:11:40 11:15:56 90° 10° (N) 11:20:15 437.675
NANOSAT C BR1 24 Feb 11:12:17 11:16:30 85° 74° (ENE) 11:20:47 145.865
QB50P2 24 Feb 11:14:37 11:18:52 81° 255° (WSW) 11:23:11 145.880/145.840
UNISAT 6 24 Feb 11:20:20 11:22:27 13° 276° (W) 11:24:35 437.425
TIGRISAT 24 Feb 11:20:46 11:23:04 14° 275° (W) 11:25:23 435.000
AO-73 24 Feb 11:21:14 11:24:10 17° 305° (NW) 11:27:03 145.935
BEESAT 2 24 Feb 11:22:32 11:25:13 17° 351° (N) 11:27:55 435.950
LO-87 24 Feb 11:26:34 11:30:06 51° 101° (E) 11:33:37 145.935 - 145.965
Oscar 11 24 Feb 11:29:44 11:32:12 15° 305° (NW) 11:34:39 .
YUBILEINY 24 Feb 11:30:54 11:39:45 82° 282° (WNW) 11:48:37 435.215
FO-29 24 Feb 11:33:37 11:40:11 35° 270° (W) 11:47:14 435.910
ISS 24 Feb 11:35:46 11:39:03 65° 174° (S) 11:42:20 437.550
ESTCUBE 1 24 Feb 11:40:14 11:44:27 38° 97° (E) 11:48:38 437.505/2401.250
AIST 2D 24 Feb 11:46:40 11:49:39 24° 267° (W) 11:52:39 435.315
BUGSAT 1 24 Feb 11:46:56 11:50:58 68° 72° (ENE) 11:55:06 437.445
DELFI C3 24 Feb 11:58:19 12:00:48 16° 302° (WNW) 12:03:15 145.870
50 SAT 24 Feb 12:00:58 12:02:52 14° 90° (E) 12:04:45 437.505
AO-7 24 Feb 12:01:48 12:07:31 21° 32° (NNE) 12:13:14 .
Oscar 19 24 Feb 12:03:43 12:08:30 40° 63° (ENE) 12:13:16 437.125/150
Tancredo 1 24 Feb 12:04:12 12:07:26 67° 181° (S) 12:10:39 437.200
DX 1 24 Feb 12:06:57 12:09:06 13° 87° (E) 12:11:15 434.975-435.025
HO-68 24 Feb 12:07:48 12:10:16 12° 332° (NNW) 12:12:43 435.675
VELOX 1 24 Feb 12:10:34 12:14:24 28° 94° (E) 12:18:14 145.980
AO-85 24 Feb 12:16:16 12:20:09 52° 39° (NE) 12:23:59 145.980
UKube-1 24 Feb 12:21:15 12:23:25 13° 87° (E) 12:25:35 .
DUCHIFAT 1 24 Feb 12:21:45 12:25:14 25° 267° (W) 12:28:46 145.980
BEESAT 3 24 Feb 12:25:39 12:28:30 18° 15° (NNE) 12:31:22 437.485
SPROUT 24 Feb 12:26:43 12:30:41 33° 96° (E) 12:34:35 437.525
EO-79 24 Feb 12:32:01 12:34:58 18° 270° (W) 12:37:56 145.935-145.965
ITAMSAT 1 24 Feb 12:37:47 12:40:29 14° 47° (NE) 12:43:13 435.822/435.867
Gurwin Techsat 1B 24 Feb 12:39:44 12:44:49 46° 65° (ENE) 12:49:54 435.225
POLYITAN 1 24 Feb 12:50:25 12:52:23 13° 274° (W) 12:54:23 437.675
NANOSAT C BR1 24 Feb 12:50:42 12:52:51 14° 273° (W) 12:55:00 145.865
QB50P2 24 Feb 12:54:01 12:55:24 11° 275° (W) 12:56:48 145.880/145.840
LO-87 24 Feb 13:00:46 13:03:15 18° 299° (WNW) 13:05:45 145.935 - 145.965
BEESAT 2 24 Feb 13:01:28 13:04:23 19° 15° (NNE) 13:07:18 435.950
ISS 24 Feb 13:12:09 13:15:22 51° 195° (SSW) 13:18:35 437.550
ESTCUBE 1 24 Feb 13:17:12 13:21:13 32° 297° (WNW) 13:25:11 437.505/2401.250
BUGSAT 1 24 Feb 13:24:16 13:26:50 16° 271° (W) 13:29:25 437.445
YUBILEINY 24 Feb 13:31:00 13:38:06 26° 308° (NW) 13:45:13 435.215
50 SAT 24 Feb 13:32:56 13:36:22 58° 289° (WNW) 13:39:46 437.505
Tancredo 1 24 Feb 13:40:27 13:43:31 39° 201° (SSW) 13:46:33 437.200
DX 1 24 Feb 13:41:34 13:45:56 89° 302° (WNW) 13:50:18 434.975-435.025
Oscar 19 24 Feb 13:43:03 13:47:51 39° 263° (W) 13:52:40 437.125/150
VELOX 1 24 Feb 13:46:50 13:51:01 42° 294° (WNW) 13:55:10 145.980
AO-7 24 Feb 13:50:35 13:58:38 54° 57° (ENE) 14:06:39 .
UKube-1 24 Feb 13:55:44 14:00:06 88° 278° (W) 14:04:25 .
AO-85 24 Feb 13:57:02 14:00:20 26° 240° (WSW) 14:03:39 145.980
SPROUT 24 Feb 14:02:41 14:06:36 34° 295° (WNW) 14:10:30 437.525
BEESAT 3 24 Feb 14:03:07 14:07:01 45° 37° (NE) 14:10:54 437.485
ITAMSAT 1 24 Feb 14:13:52 14:19:00 60° 68° (ENE) 14:24:10 435.822/435.867
Gurwin Techsat 1B 24 Feb 14:20:06 14:24:55 34° 265° (W) 14:29:47 435.225
BEESAT 2 24 Feb 14:39:08 14:43:04 45° 37° (NE) 14:46:59 435.950
ISS 24 Feb 14:48:59 14:51:22 19° 214° (SSW) 14:53:45 437.550
ITUPSAT 1 24 Feb 15:11:18 15:15:58 46° 99° (E) 15:20:35 437.325
Tancredo 1 24 Feb 15:17:52 15:19:09 12° 219° (SW) 15:20:26 437.200
BEESAT 24 Feb 15:18:31 15:23:16 54° 101° (E) 15:27:56 436.000
DX 1 24 Feb 15:18:55 15:21:32 16° 306° (NW) 15:24:10 434.975-435.025
CUTE-I 24 Feb 15:20:08 15:21:13 11° 42° (NE) 15:22:18 437.470
UKube-1 24 Feb 15:32:59 15:35:31 15° 306° (NW) 15:38:03 .
HO-68 24 Feb 15:37:25 15:39:21 11° 26° (NNE) 15:41:16 435.675
BEESAT 3 24 Feb 15:40:55 15:44:33 33° 238° (WSW) 15:48:11 437.485
AO-7 24 Feb 15:43:27 15:51:31 51° 259° (W) 15:59:38 .
MOZHAYETS 4 24 Feb 15:47:43 15:52:09 43° 98° (E) 15:56:32
ITAMSAT 1 24 Feb 15:54:34 15:58:52 26° 268° (W) 16:03:12 435.822/435.867
PCSat 24 Feb 16:10:37 16:14:46 23° 110° (ESE) 16:18:56 145.827
DOVE 4 24 Feb 16:15:49 16:18:38 18° 57° (ENE) 16:21:29 437.250
BEESAT 2 24 Feb 16:17:06 16:20:47 34° 238° (WSW) 16:24:26 435.950
KAITUO 1B 24 Feb 16:24:28 16:26:42 15° 58° (ENE) 16:28:57 145.475/437.950
KKS-1 24 Feb 16:25:25 16:29:19 29° 95° (E) 16:33:12 437.445
XW-2F 24 Feb 16:27:13 16:29:53 18° 60° (ENE) 16:32:33 145.980 - 146.000
XW-2D 24 Feb 16:31:03 16:33:56 20° 61° (ENE) 16:36:49 145.860 - 145.880
XW-2B 24 Feb 16:35:56 16:38:56 22° 62° (ENE) 16:41:56 145.730 - 145.750
RS-15 24 Feb 16:40:17 16:49:45 29° 101° (ESE) 16:59:24 29.354- 29.394
XW-2C 24 Feb 16:44:15 16:47:29 26° 63° (ENE) 16:50:43 145.795 - 145.815
CUBESAT XI-V 24 Feb 16:44:48 16:48:52 30° 94° (E) 16:52:54 437.345
ITUPSAT 1 24 Feb 16:49:26 16:53:40 31° 299° (WNW) 16:57:51 437.325
CUTE-I 24 Feb 16:54:59 16:59:58 41° 63° (ENE) 17:05:00 437.470
BEESAT 24 Feb 16:56:46 17:00:47 27° 301° (WNW) 17:04:47 436.000
NUDT-PHONESAT 24 Feb 16:59:09 17:02:26 29° 65° (ENE) 17:05:46 437.300
LilacSat-2 24 Feb 16:59:43 17:03:19 36° 67° (ENE) 17:06:55 437.200
STARS 24 Feb 17:01:53 17:05:50 31° 95° (E) 17:09:47 437.465
CUTE 1.7 + AOD 2 24 Feb 17:12:44 17:13:36 11° 51° (NE) 17:14:28 437.475
HO-68 24 Feb 17:18:54 17:24:55 30° 50° (NE) 17:30:55 435.675
MOZHAYETS 4 24 Feb 17:25:08 17:29:12 31° 298° (WNW) 17:33:13
AO-7 24 Feb 17:43:42 17:46:31 12° 282° (WNW) 17:49:19 .
M-CUBED/EXP-1 PRIME 24 Feb 17:46:24 17:49:43 31° 104° (ESE) 17:53:15 437.505
DOVE 4 24 Feb 17:51:46 17:55:53 69° 258° (WSW) 18:00:08 437.250
PCSat 24 Feb 17:52:10 17:57:36 81° 310° (NW) 18:03:06 145.827
KAITUO 1B 24 Feb 17:56:26 18:00:15 75° 258° (WSW) 18:04:06 145.475/437.950
XW-2F 24 Feb 17:59:52 18:03:40 59° 259° (W) 18:07:31 145.980 - 146.000
UWE-3 24 Feb 18:00:46 18:02:16 11° 49° (NE) 18:03:46 435.000/436.395/437.385
KKS-1 24 Feb 18:01:47 18:06:02 43° 294° (WNW) 18:10:16 437.445
AAUSAT CUBESAT 2 24 Feb 18:02:46 18:04:05 11° 52° (NE) 18:05:24 437.432
XW-2D 24 Feb 18:04:04 18:07:51 51° 260° (W) 18:11:38 145.860 - 145.880
SEEDS 24 Feb 18:08:49 18:12:01 21° 60° (ENE) 18:15:13 437.485
XW-2B 24 Feb 18:09:09 18:12:53 47° 261° (W) 18:16:39 145.730 - 145.750
XW-2C 24 Feb 18:17:56 18:21:33 38° 263° (W) 18:25:12 145.795 - 145.815
CUBESAT XI-V 24 Feb 18:22:02 18:26:24 42° 294° (WNW) 18:30:43 437.345
ZACube-1 24 Feb 18:23:32 18:25:07 12° 50° (NE) 18:26:43 437.345
XW-2A 24 Feb 18:24:44 18:28:02 48° 71° (ENE) 18:31:23 145.665 - 145.685
STRAND 1 24 Feb 18:28:33 18:30:45 13° 83° (E) 18:32:57 437.568
NUDT-PHONESAT 24 Feb 18:32:57 18:36:21 31° 264° (W) 18:39:47 437.300
LilacSat-2 24 Feb 18:34:23 18:37:41 26° 266° (W) 18:41:02 437.200
CUTE-I 24 Feb 18:35:05 18:40:04 39° 263° (W) 18:45:06 437.470
NO-84 24 Feb 18:36:05 18:39:18 39° 146° (SE) 18:42:49 435.350 FM
STARS 24 Feb 18:38:08 18:42:17 39° 294° (WNW) 18:46:25 437.465
CUTE 1.7 + AOD 2 24 Feb 18:44:22 18:48:35 57° 71° (ENE) 18:52:47 437.475
RS-15 24 Feb 18:48:20 19:00:23 79° 127° (SE) 19:12:47 29.354- 29.394
CUBEBUG 2 24 Feb 18:54:36 18:58:47 39° 65° (ENE) 19:03:06 437.445
HO-68 24 Feb 19:04:49 19:12:01 83° 252° (WSW) 19:19:15 435.675
AO-73 24 Feb 19:09:57 19:13:33 24° 60° (ENE) 19:17:11 145.935
Oscar 11 24 Feb 19:17:47 19:21:16 24° 61° (ENE) 19:24:46 .
M-CUBED/EXP-1 PRIME 24 Feb 19:20:58 19:24:12 31° 301° (WNW) 19:27:38 437.505
UWE-3 24 Feb 19:33:21 19:37:45 56° 70° (ENE) 19:42:18 435.000/436.395/437.385
AAUSAT CUBESAT 2 24 Feb 19:34:40 19:38:47 66° 73° (ENE) 19:42:55 437.432
YUBILEINY 24 Feb 19:36:55 19:43:33 23° 49° (NE) 19:50:07 435.215
PCSat 24 Feb 19:37:08 19:41:47 28° 334° (NNW) 19:46:29 145.827
DELFI C3 24 Feb 19:41:09 19:43:18 14° 56° (NE) 19:45:25 145.870
SEEDS 24 Feb 19:43:13 19:47:23 58° 259° (W) 19:51:36 437.485
ZACube-1 24 Feb 19:56:04 20:00:29 58° 70° (ENE) 20:04:59 437.345
XW-2A 24 Feb 19:58:56 20:01:06 16° 270° (W) 20:03:17 145.665 - 145.685
STRAND 1 24 Feb 20:05:42 20:10:54 71° 104° (ESE) 20:16:03 437.568
NO-84 24 Feb 20:13:15 20:16:50 76° 348° (NNW) 20:20:47 435.350 FM
CUTE 1.7 + AOD 2 24 Feb 20:21:36 20:24:46 20° 270° (W) 20:27:57 437.475
CUBEBUG 2 24 Feb 20:31:25 20:35:28 33° 266° (W) 20:39:40 437.445
AO-73 24 Feb 20:45:01 20:49:27 58° 260° (W) 20:53:59 145.935
Oscar 11 24 Feb 20:52:51 20:57:08 53° 260° (W) 21:01:26 .
HO-68 24 Feb 20:55:41 21:00:51 21° 274° (W) 21:06:03 435.675
RS-15 24 Feb 21:01:50 21:13:54 57° 337° (NNW) 21:26:06 29.354- 29.394
UWE-3 24 Feb 21:11:00 21:14:34 23° 270° (W) 21:18:12 435.000/436.395/437.385
ESTCUBE 1 24 Feb 21:11:29 21:13:49 14° 52° (NE) 21:16:08 437.505/2401.250
AAUSAT CUBESAT 2 24 Feb 21:11:58 21:14:41 17° 271° (W) 21:17:25 437.432
DELFI C3 24 Feb 21:13:34 21:17:32 86° 252° (WSW) 21:21:31 145.870
PCSat 24 Feb 21:23:07 21:26:57 19° 359° (N) 21:30:47 145.827
UNISAT 6 24 Feb 21:26:53 21:29:42 16° 86° (E) 21:32:30 437.425
TIGRISAT 24 Feb 21:27:30 21:30:10 15° 86° (E) 21:32:48 435.000
PRISM 24 Feb 21:28:15 21:31:43 26° 95° (E) 21:35:11 437.425
YUBILEINY 24 Feb 21:33:25 21:42:12 72° 75° (ENE) 21:50:54 435.215
ZACube-1 24 Feb 21:33:39 21:37:08 22° 270° (W) 21:40:40 437.345
VELOX 1 24 Feb 21:41:24 21:42:09 10° 49° (NE) 21:42:54 145.980
STRAND 1 24 Feb 21:45:33 21:49:39 24° 304° (NW) 21:53:43 437.568
NO-84 24 Feb 21:50:57 21:54:45 71° 9° (N) 21:58:52 435.350 FM
SPROUT 24 Feb 21:54:12 21:54:51 10° 50° (NE) 21:55:30 437.525
LO-87 24 Feb 22:08:26 22:11:54 54° 71° (ENE) 22:15:24 145.935 - 145.965
SO-50 24 Feb 22:33:55 22:37:47 26° 118° (ESE) 22:41:37 436.795
FO-29 24 Feb 22:35:35 22:42:50 40° 92° (E) 22:49:31 435.910
50 SAT 24 Feb 22:40:55 22:43:13 17° 60° (ENE) 22:45:30 437.505
ESTCUBE 1 24 Feb 22:45:23 22:49:54 74° 71° (ENE) 22:54:24 437.505/2401.250
DELFI C3 24 Feb 22:51:54 22:52:59 11° 275° (W) 22:54:04 145.870
POLYITAN 1 24 Feb 22:53:02 22:53:38 10° 84° (E) 22:54:14 437.675
QB50P2 24 Feb 22:55:08 22:56:41 12° 85° (E) 22:58:12 145.880/145.840
UNISAT 6 24 Feb 23:02:19 23:07:04 87° 289° (WNW) 23:11:46 437.425
TIGRISAT 24 Feb 23:02:47 23:07:33 89° 116° (ESE) 23:12:14 435.000
PRISM 24 Feb 23:03:19 23:07:09 39° 294° (WNW) 23:10:57 437.425
AIST 2D 24 Feb 23:05:42 23:08:15 18° 91° (E) 23:10:46 435.315
PCSat 24 Feb 23:07:31 23:12:08 27° 25° (NNE) 23:16:44 145.827
DX 1 24 Feb 23:07:39 23:11:15 26° 61° (ENE) 23:14:52 434.975-435.025
VELOX 1 24 Feb 23:13:25 23:17:41 53° 69° (ENE) 23:21:59 145.980
RS-15 24 Feb 23:17:12 23:29:12 50° 10° (N) 23:41:03 29.354- 29.394
O/OREOS (USA 219) 24 Feb 23:19:31 23:23:49 47° 112° (ESE) 23:28:11 437.305
UKube-1 24 Feb 23:20:54 23:24:28 26° 61° (ENE) 23:28:04 .
SPROUT 24 Feb 23:25:42 23:29:52 55° 70° (ENE) 23:34:05 437.525
NO-84 24 Feb 23:28:35 23:32:28 55° 209° (SSW) 23:36:38 435.350 FM
YUBILEINY 24 Feb 23:30:52 23:38:22 34° 279° (W) 23:45:50 435.215
LO-87 24 Feb 23:43:32 23:45:42 15° 270° (W) 23:47:52 145.935 - 145.965
DUCHIFAT 1 24 Feb 23:58:33 00:02:29 34° 96° (E) 00:06:23 145.980
EO-79 25 Feb 00:08:36 00:12:48 49° 100° (E) 00:16:58 145.935-145.965
50 SAT 25 Feb 00:12:34 00:16:01 54° 259° (WSW) 00:19:28 437.505
SO-50 25 Feb 00:13:18 00:17:56 67° 319° (NW) 00:22:31 436.795
FO-29 25 Feb 00:20:31 00:28:12 61° 295° (WNW) 00:35:20 435.910
ESTCUBE 1 25 Feb 00:24:15 00:27:14 17° 272° (W) 00:30:12 437.505/2401.250
NANOSAT C BR1 25 Feb 00:25:54 00:30:11 67° 103° (ESE) 00:34:26 145.865
POLYITAN 1 25 Feb 00:25:54 00:30:14 72° 103° (ESE) 00:34:32 437.675
QB50P2 25 Feb 00:28:52 00:33:11 81° 103° (ESE) 00:37:30 145.880/145.840
AIST 2D 25 Feb 00:38:17 00:41:43 45° 290° (WNW) 00:45:08 435.315
UNISAT 6 25 Feb 00:40:07 00:43:08 17° 306° (NW) 00:46:07 437.425
TIGRISAT 25 Feb 00:40:31 00:43:37 18° 305° (NW) 00:46:43 435.000
DX 1 25 Feb 00:43:04 00:47:15 47° 260° (W) 00:51:28 434.975-435.025
ITUPSAT 1 25 Feb 00:47:55 00:51:26 20° 55° (NE) 00:54:57 437.325
PCSat 25 Feb 00:50:54 00:56:23 76° 49° (NE) 01:01:49 145.827
VELOX 1 25 Feb 00:51:00 00:54:27 22° 268° (W) 00:57:55 145.980
Gurwin Techsat 1B 25 Feb 00:51:59 00:53:15 11° 81° (E) 00:54:30 435.225
BEESAT 25 Feb 00:54:34 00:58:17 23° 57° (ENE) 01:02:01 436.000
UKube-1 25 Feb 00:56:09 01:00:19 47° 260° (W) 01:04:30 .
BUGSAT 1 25 Feb 00:57:33 01:01:42 49° 100° (E) 01:05:50 437.445
O/OREOS (USA 219) 25 Feb 00:59:24 01:03:26 31° 313° (NW) 01:07:29 437.305
SPROUT 25 Feb 01:02:54 01:06:08 21° 269° (W) 01:09:23 437.525
NO-84 25 Feb 01:07:03 01:09:38 16° 227° (SW) 01:12:16 435.350 FM
MOZHAYETS 4 25 Feb 01:20:37 01:23:25 16° 53° (NE) 01:26:11
RS-15 25 Feb 01:31:12 01:43:42 78° 41° (NE) 01:55:48 29.354- 29.394
DUCHIFAT 1 25 Feb 01:34:18 01:38:09 33° 295° (WNW) 01:41:59 145.980
EO-79 25 Feb 01:44:49 01:48:20 25° 299° (WNW) 01:51:49 145.935-145.965
Oscar 19 25 Feb 01:47:39 01:52:36 47° 99° (E) 01:57:32 437.125/150
SO-50 25 Feb 01:55:20 01:59:10 25° 341° (NNW) 02:02:58 436.795
KKS-1 25 Feb 01:56:30 01:57:43 11° 49° (NE) 01:58:57 437.445
NANOSAT C BR1 25 Feb 02:02:24 02:05:29 20° 302° (WNW) 02:08:33 145.865
POLYITAN 1 25 Feb 02:02:34 02:05:34 19° 303° (WNW) 02:08:34 437.675
QB50P2 25 Feb 02:05:42 02:08:28 17° 304° (NW) 02:11:14 145.880/145.840
FO-29 25 Feb 02:06:21 02:11:47 21° 317° (NW) 02:17:00 435.910
CUBESAT XI-V 25 Feb 02:20:07 02:21:48 12° 50° (NE) 02:23:29 437.345
ITAMSAT 1 25 Feb 02:22:00 02:24:25 13° 84° (E) 02:26:49 435.822/435.867
ITUPSAT 1 25 Feb 02:23:56 02:28:45 78° 254° (WSW) 02:33:37 437.325
Gurwin Techsat 1B 25 Feb 02:29:02 02:34:21 60° 102° (ESE) 02:39:36 435.225
BEESAT 25 Feb 02:30:53 02:35:40 68° 257° (WSW) 02:40:28 436.000
STARS 25 Feb 02:31:31 02:32:54 11° 49° (NE) 02:34:16 437.465
BUGSAT 1 25 Feb 02:33:23 02:36:50 24° 299° (WNW) 02:40:16 437.445
PCSat 25 Feb 02:34:56 02:39:18 25° 249° (WSW) 02:43:38 145.827
O/OREOS (USA 219) 25 Feb 02:43:32 02:44:21 10° 337° (NNW) 02:45:09 437.305
MOZHAYETS 4 25 Feb 02:55:14 02:59:54 82° 72° (ENE) 03:04:34
M-CUBED/EXP-1 PRIME 25 Feb 03:05:53 03:07:45 15° 51° (NE) 03:09:39 437.505
Oscar 19 25 Feb 03:27:14 03:31:49 34° 299° (WNW) 03:36:22 437.125/150
KKS-1 25 Feb 03:29:03 03:33:23 56° 69° (ENE) 03:37:45 437.445
AO-7 25 Feb 03:37:27 03:45:14 41° 97° (E) 03:52:55 .
SO-50 25 Feb 03:37:36 03:41:01 20° 6° (N) 03:44:25 436.795
RS-15 25 Feb 03:44:13 03:55:34 46° 248° (WSW) 04:06:33 29.354- 29.394
CUBESAT XI-V 25 Feb 03:53:42 03:58:17 58° 70° (ENE) 04:02:51 437.345
ITAMSAT 1 25 Feb 03:59:34 04:04:50 72° 104° (ESE) 04:10:04 435.822/435.867
STARS 25 Feb 04:04:04 04:08:21 58° 70° (ENE) 04:12:43 437.465
ITUPSAT 1 25 Feb 04:05:11 04:07:25 13° 275° (W) 04:09:39 437.325
Gurwin Techsat 1B 25 Feb 04:09:29 04:14:00 29° 302° (WNW) 04:18:30 435.225
BEESAT 25 Feb 04:13:03 04:14:23 11° 277° (W) 04:15:42 436.000
AO-85 25 Feb 04:17:19 04:20:24 19° 117° (ESE) 04:23:22 145.980
MOZHAYETS 4 25 Feb 04:34:48 04:37:40 16° 273° (W) 04:40:34
M-CUBED/EXP-1 PRIME 25 Feb 04:38:38 04:41:53 63° 251° (WSW) 04:45:10 437.505
